Location: Ecquemicourt
(50.4023°N, 1.9502°E)
Time: 04:39:33
(UTC+00:00)

Daily predictions for brighter satellites

Satellite Brightness Start Highest point End
(mag) Time Altitude Azimuth Time Altitude Azimuth Time Altitude Azimuth
Okean 1 3.2 00:00:35 10° N 00:04:39 88° W 00:05:27 57° S
Cosmos 2285 Rocket 4.1 00:07:14 10° NNW 00:13:27 61° WSW 00:16:07 34° S
Cosmos 2333 Rocket 2.4 00:08:35 10° NW 00:14:06 54° WSW 00:16:02 37° SSW
Cosmos 494 Rocket 4.1 00:13:18 40° SSE 00:14:56 59° ESE 00:19:59 10° NNE
Meteor 1-25 Rocket 4.3 00:18:07 34° SSW 00:20:39 69° WNW 00:26:16 10° N
CZ-4C R/B 4.5 00:15:39 10° NW 00:21:27 33° NNE 00:28:15 10° E
Cosmos 2084 3.5 00:20:13 35° WSW 00:21:50 70° NW 00:26:02 10° NE
ATLAS 5 CENTAUR R/B 2.4 00:17:16 10° NW 00:22:38 75° NE 00:28:59 10° SE
Cosmos 2360 Rocket 3.5 00:19:21 10° NW 00:23:46 24° WSW 00:25:10 22° SW
Cosmos 1452 Rocket 4.1 00:20:33 10° NW 00:25:29 43° WSW 00:26:58 34° SW
Cosmos 1980 4.1 00:20:18 10° NNW 00:25:56 60° NE 00:30:19 17° SE
PSLV R/B 3.8 00:21:49 10° NNE 00:26:37 85° WNW 00:28:18 41° SSW
Meteor 1-19 Rocket 4.4 00:23:56 10° NNW 00:29:34 58° W 00:31:46 35° SSW
Cosmos 2322 4.2 00:25:05 10° NW 00:30:28 44° WSW 00:32:15 34° SSW
Cosmos 1666 3.1 00:29:45 44° SE 00:30:30 53° E 00:34:17 10° NNE
Meteor 1-14 Rocket 4.2 00:30:32 36° S 00:32:52 74° E 00:38:28 10° NNE
Cosmos 1378 4.1 00:31:36 10° N 00:35:07 39° ENE 00:36:24 29° ESE
Resurs 1-4 Rocket 3.5 00:36:46 10° NE 00:41:19 28° E 00:44:08 18° SE
Cosmos 1536 4.5 00:40:02 20° ESE 00:41:30 25° E 00:44:49 10° NNE
Cosmos 2297 Rocket 3.1 00:46:29 25° SSE 00:48:52 37° ESE 00:54:01 10° NE
NOSS 3-1 (C) 4.5 00:42:45 10° NW 00:49:50 45° WSW 00:54:01 27° S
Cosmos 2237 Rocket 2.2 00:44:51 10° NNW 00:50:34 82° ENE 00:54:35 20° SSE
Meteor 2-17 Rocket 4.4 00:54:55 31° S 00:57:59 88° E 01:04:05 10° N
Cosmos 2227 Rocket 3.3 00:56:52 22° SSE 00:59:30 34° ESE 01:04:32 10° NE
TSX-5 4.2 00:59:09 39° SSE 00:59:54 45° ESE 01:04:05 10° NE
USA 229 DEB 4.0 00:53:38 10° NW 01:00:44 55° WSW 01:05:34 23° S
USA 229 4.0 00:53:44 10° NW 01:00:50 55° WSW 01:05:44 23° S
Cosmos 1709 Rocket 4.1 00:58:20 28° S 01:01:48 74° E 01:08:10 10° NNE
Cosmos 1470 Rocket 3.6 01:00:37 40° SW 01:02:02 64° WNW 01:06:21 10° N
Meteor 2-4 Rocket 4.1 00:56:44 10° NNW 01:02:33 56° W 01:05:16 31° SSW
EO 1 Del DPAF 3.3 00:59:07 10° N 01:02:49 65° WNW 01:03:46 45° SW
COSMOS 2487 4.2 01:07:03 19° W 01:08:17 23° WNW 01:11:04 10° N
NOSS 0 Rocket 4.1 01:02:19 10° NW 01:08:24 55° WSW 01:11:32 28° S
Cosmos 1933 Rocket 3.5 01:07:30 39° SSW 01:09:10 82° W 01:13:40 10° N
Cosmos 1745 Rocket 4.2 01:06:16 29° SSW 01:09:32 63° WNW 01:15:47 10° N
UNK 4.4 01:06:32 18° SE 01:09:53 54° ENE 01:14:28 10° N
COSMOS 2428 3.6 01:06:11 10° NW 01:11:06 31° WSW 01:12:40 27° SW
USA 267 4.2 01:04:58 10° ENE 01:11:14 50° N 01:17:31 10° WNW
YAOGAN 11 4.2 01:10:25 36° S 01:12:10 64° WSW 01:16:42 10° NNW
Cosmos 1633 Rocket 4.2 01:10:54 24° WSW 01:12:36 32° WNW 01:16:33 10° N
SL-16 R/B 3.0 01:07:52 10° NNW 01:13:24 50° NE 01:18:54 10° SE
MOZ.5/SAFIR/RUBIN 5/SL-8 3.8 01:11:26 33° S 01:13:34 74° WSW 01:18:20 10° NNW
Lacrosse 5 3.3 01:12:35 21° SSE 01:13:58 23° SE 01:17:57 10° ENE
CZ-2D R/B 2.7 01:10:21 10° NNE 01:15:35 50° E 01:18:42 23° SSE
ADEOS Rocket 3.4 01:11:00 11° SE 01:16:18 55° ENE 01:21:39 10° N
Okean 1-7 2.9 01:12:18 10° NNW 01:16:33 69° W 01:18:05 38° SSW
SL-16 R/B 2.6 01:13:31 17° SSE 01:18:29 78° ENE 01:24:41 10° NNW
COSMOS 2455 3.4 01:14:38 19° WSW 01:18:56 55° NW 01:24:52 10° NNE
Cosmos 1544 3.4 01:18:15 37° SSE 01:19:26 59° E 01:23:02 10° NNE
Helios 1A 3.1 01:18:25 37° SSW 01:19:53 60° WSW 01:24:06 10° NNW
Okean 3 3.5 01:16:23 10° N 01:20:43 78° E 01:22:53 28° SSE
NOSS 3-1 (A) 4.4 01:13:53 10° NW 01:21:01 46° WSW 01:26:38 20° S
BREEZE-M DEB (TANK) 4.4 01:22:27 13° ESE 01:22:27 13° ESE 01:23:00 10° E
Cosmos 2219 Rocket 3.5 01:17:21 10° NW 01:21:26 21° W 01:22:37 20° WSW
Meteor 1-5 Rocket 4.4 01:18:52 29° SW 01:21:46 62° WNW 01:27:33 10° N
ARGOS Delta rocket 3.9 01:18:50 10° N 01:23:40 69° WNW 01:25:47 32° SSW
ADEOS II 3.5 01:19:30 10° NNE 01:24:09 31° E 01:28:02 14° SSE
CZ-4 R/B 4.0 01:23:34 10° N 01:28:29 70° WNW 01:31:02 29° SSW
Cosmos 1340 Rocket 2.9 01:27:12 37° SW 01:28:32 61° WNW 01:32:25 10° N
Cosmos 1743 3.2 01:33:42 28° SSE 01:35:29 55° E 01:39:15 10° NNE
Cosmos 1269 Rocket 4.0 01:34:36 28° SSW 01:37:28 79° WNW 01:42:46 10° NNE
NOSS 2-2 (D) 4.3 01:32:26 10° NW 01:37:35 74° SW 01:44:52 10° SSE
AQUA 4.4 01:34:15 10° NNE 01:38:55 51° E 01:41:55 21° SSE
ASTEX 1 3.6 01:38:33 28° SSW 01:40:55 56° W 01:45:46 10° NNW
Helios 1B rocket 3.0 01:39:10 10° NNE 01:43:12 52° E 01:45:31 23° SSE
Cosmos 1703 Rocket 4.3 01:41:24 10° NNW 01:45:21 35° W 01:46:53 27° SW
Cosmos 2219 3.3 01:42:03 25° SSW 01:45:29 77° ESE 01:51:17 10° NNE
Cosmos 1066 Rocket 4.4 01:40:11 10° NNW 01:45:56 60° W 01:49:38 23° SSW
Cosmos 2074 Rocket 4.3 01:43:18 18° S 01:48:03 65° E 01:54:14 10° NNE
Iridium 4 Rocket 4.5 01:48:46 10° N 01:53:59 50° E 01:59:32 10° SSE
Cosmos 2084 Rocket 3.6 01:50:04 10° NW 01:54:10 50° SW 01:57:52 13° SSE
Cosmos 2181 Rocket 4.2 01:51:08 10° NNW 01:57:22 57° W 02:01:43 20° SSW
Cosmos 192 4.4 01:52:37 10° NNW 01:57:34 80° ENE 02:02:30 10° SSE
Meteor 1-11 Rocket 3.9 01:54:11 23° SSW 01:57:35 61° WNW 02:03:05 10° N
Cosmos 1992 Rocket 4.0 01:55:17 10° NNW 02:00:27 61° WSW 02:04:37 16° S
Aureole 2 Rocket 3.6 02:01:33 12° NNW 02:01:33 12° NNW 02:01:46 10° NNW
Cosmos 2082 4.1 02:02:39 18° S 02:06:45 56° ESE 02:12:22 10° NE
ATLAS 5 CENTAUR R/B 3.2 02:02:16 10° WNW 02:07:05 28° WSW 02:10:23 19° SSW
MINOTAUR 4 R/B 4.1 02:05:02 15° SSE 02:07:52 82° ENE 02:11:28 10° NNW
Cosmos 1733 Rocket 3.4 02:05:38 17° S 02:08:55 65° E 02:13:21 10° NNE
Cosmos 1842 3.3 02:05:48 10° N 02:09:41 76° E 02:13:03 13° SSE
CZ-4C R/B 3.2 02:04:10 10° NW 02:11:07 71° NE 02:19:21 10° SE
IDEFIX/ARIANE 42P 3.3 02:11:56 10° NNE 02:16:58 48° E 02:21:57 10° S
Cosmos 1536 3.9 02:15:44 20° WSW 02:17:47 32° WNW 02:21:27 10° N
Resurs 1-4 Rocket 2.5 02:16:15 10° N 02:21:24 51° WNW 02:25:13 18° SW
Meteor 1-29 2.8 02:27:31 10° NNE 02:30:51 89° ESE 02:33:12 18° SSW
Cosmos 2251 Rocket 3.5 02:27:52 17° SSW 02:32:02 89° ESE 02:37:23 10° NNE
Cosmos 2297 Rocket 2.9 02:28:17 15° WSW 02:32:49 46° NW 02:38:18 10° NNE
Cosmos 2237 Rocket 3.6 02:30:03 10° WNW 02:33:56 19° W 02:36:20 15° SW
NPP 4.1 02:29:16 10° N 02:34:29 50° WNW 02:38:43 15° SW
Okean 2 3.4 02:35:12 10° NNW 02:39:24 85° W 02:43:34 10° S
Nadezhda 3 Rocket 4.1 02:33:23 10° NNW 02:39:46 71° W 02:46:03 10° S
Cosmos 1603 4.3 02:34:49 10° NNW 02:40:23 60° NE 02:45:57 10° SE
SL-08 R/B 4.4 02:37:15 10° SE 02:42:01 51° ENE 02:46:50 10° N
Cosmos 1238 Rocket 2.3 02:40:33 14° S 02:43:06 77° E 02:46:32 10° NNE
Cosmos 2227 Rocket 2.7 02:38:41 14° SW 02:43:23 49° NW 02:48:54 10° NNE
Cosmos 2221 Rocket 4.3 02:39:48 10° NNW 02:44:02 38° W 02:47:39 13° SSW
Spot 1 4.2 02:41:47 10° SSE 02:45:55 74° ENE 02:50:00 10° NNW
CZ-2C R/B 4.4 02:43:23 10° NE 02:46:58 22° E 02:50:32 10° SE
Cosmos 1674 4.1 02:43:34 10° N 02:47:12 39° ENE 02:50:49 10° SE
BREEZE-M DEB (TANK) 4.5 02:38:45 13° SW 02:47:19 40° SSE 02:50:42 10° E
Timation 2 Rocket 4.2 02:46:39 13° SW 02:51:55 59° NW 02:57:59 10° NNE
CZ-4C R/B 3.4 02:48:14 10° SSE 02:52:19 81° WSW 02:56:38 10° NNW
USA 267 3.8 02:47:21 10° E 02:53:48 63° NNE 03:00:15 10° WNW
CZ-2D R/B 3.3 02:50:48 10° N 02:55:25 30° WNW 03:00:01 10° WSW
Meteor 2-9 Rocket 4.2 02:51:21 12° SSW 02:56:20 66° WNW 03:01:41 10° N
Lacrosse 5 1.9 02:51:46 12° SW 02:56:25 89° SE 03:01:31 10° ENE
SL-16 R/B 2.9 02:52:19 10° NW 02:57:20 33° WSW 03:02:20 10° SSW
Cosmos 1140 Rocket 3.8 02:54:57 10° S 03:00:08 65° ESE 03:05:21 10° NNE
ADEOS Rocket 3.9 02:57:57 12° SW 03:02:13 26° W 03:06:46 10° NW
ARIANE 5 R/B 3.1 02:57:32 10° NNE 03:02:37 57° ESE 03:07:43 10° S
SL-16 R/B 3.8 02:58:37 12° SW 03:02:46 22° W 03:07:24 10° NW
ADEOS II 2.6 02:59:00 10° N 03:04:00 46° WNW 03:08:58 10° SW
CZ-4B R/B 4.2 03:00:20 10° NNE 03:05:07 49° E 03:09:46 10° S
IRS-1C 4.3 03:01:25 10° NNE 03:06:47 74° ESE 03:12:07 10° S
Cosmos 1674 Rocket 4.2 03:02:52 10° NNW 03:06:58 38° W 03:11:03 10° SSW
ATLAS 2AS CENTAUR R/B 4.3 03:02:56 10° NW 03:10:03 41° NNE 03:16:39 10° E
ATLAS CENTAUR R/B 3.1 03:08:23 10° S 03:11:27 24° ESE 03:14:38 10° ENE
Cosmos 2263 Rocket 2.5 03:06:11 10° SSW 03:11:47 66° ESE 03:17:27 10° NNE
Cosmos 2154 Rocket 4.4 03:09:12 10° SSW 03:15:10 48° WNW 03:21:11 10° N
Cosmos 1461 3.4 03:11:03 10° SSW 03:15:35 63° SE 03:19:59 10° NE
IRS-1D 4.0 03:10:53 10° N 03:15:36 46° WNW 03:20:21 10° SW
Cosmos 1975 3.6 03:13:51 10° SW 03:17:40 37° WNW 03:21:31 10° N
Helios 1B rocket 4.2 03:15:08 10° NNW 03:18:07 20° WNW 03:21:06 10° WSW
Cosmos 1805 4.4 03:19:31 10° SSE 03:23:13 44° E 03:26:57 10° NNE
Cosmos 1975 Rocket 3.1 03:20:03 10° N 03:24:30 89° E 03:28:53 10° S
In-Cosmos 22 4.4 03:19:20 10° NNW 03:24:59 57° W 03:30:35 10° S
KORONAS-FOTON 3.8 03:23:43 10° NNW 03:27:39 73° W 03:31:33 10° S
